| time (UTC) | temp F | wind direction | speed MPH | gust MPH | rain 1hr in | rain 24hr in | rain mn in | humidity % | barometer mb |
| 20260503014307 | 36 | 304 | 1.0 | 1.0 | 0.00 | 0.06 | 0.06 | 83 | 1066.9 |
| 20260503013301 | 37 | 305 | 1.0 | 1.0 | 0.00 | 0.06 | 0.06 | 82 | 1066.9 |
| 20260503012301 | 37 | 302 | 0.0 | 1.0 | 0.00 | 0.06 | 0.06 | 82 | 1066.8 |
| 20260503011301 | 37 | 313 | 0.0 | 0.0 | 0.00 | 0.06 | 0.06 | 82 | 1066.8 |
| 20260503010300 | 37 | 318 | 1.0 | 2.0 | 0.00 | 0.06 | 0.06 | 82 | 1066.8 |
| 20260503005255 | 37 | 315 | 1.0 | 1.0 | 0.00 | 0.06 | 0.06 | 83 | 1066.9 |
| 20260503004255 | 37 | 306 | 0.0 | 1.0 | 0.00 | 0.06 | 0.06 | 82 | 1066.8 |
| 20260503003254 | 37 | 322 | 1.0 | 2.0 | 0.00 | 0.06 | 0.06 | 81 | 1066.6 |
| 20260503002254 | 37 | 296 | 1.0 | 1.0 | 0.00 | 0.06 | 0.06 | 80 | 1066.8 |
| 20260503001253 | 38 | 310 | 1.0 | 1.0 | 0.00 | 0.06 | 0.06 | 78 | 1066.2 |
| 20260503000248 | 38 | 348 | 2.0 | 2.0 | 0.00 | 0.06 | 0.06 | 77 | 1066.5 |
| 20260502235242 | 39 | 318 | 2.0 | 3.0 | 0.00 | 0.06 | 0.06 | 76 | 1066.4 |
| 20260502234242 | 39 | 318 | 4.0 | 5.0 | 0.00 | 0.06 | 0.06 | 74 | 1066.2 |
| 20260502233240 | 40 | 23 | 5.0 | 6.0 | 0.00 | 0.06 | 0.06 | 74 | 1066.0 |
| 20260502232239 | 40 | 320 | 1.0 | 1.0 | 0.00 | 0.06 | 0.06 | 72 | 1066.1 |
| 20260502231234 | 41 | 311 | 2.0 | 2.0 | 0.00 | 0.06 | 0.06 | 66 | 1065.7 |
| 20260502230230 | 41 | 278 | 2.0 | 2.0 | 0.00 | 0.06 | 0.06 | 64 | 1066.0 |
| 20260502225229 | 41 | 318 | 2.0 | 2.0 | 0.00 | 0.06 | 0.06 | 63 | 1066.0 |
| 20260502224228 | 41 | 330 | 3.0 | 3.0 | 0.00 | 0.06 | 0.06 | 62 | 1065.7 |
| 20260502223223 | 41 | 286 | 3.0 | 3.0 | 0.00 | 0.06 | 0.06 | 61 | 1065.7 |
| 20260502222223 | 41 | 268 | 5.0 | 6.0 | 0.00 | 0.06 | 0.06 | 59 | 1065.6 |
| 20260502221222 | 41 | 275 | 5.0 | 6.0 | 0.00 | 0.06 | 0.06 | 56 | 1065.6 |
| 20260502220220 | 42 | 326 | 2.0 | 3.0 | 0.00 | 0.06 | 0.06 | 55 | 1065.8 |
| 20260502215221 | 42 | 336 | 3.0 | 5.0 | 0.00 | 0.06 | 0.06 | 54 | 1065.6 |
| 20260502214215 | 42 | 265 | 1.0 | 2.0 | 0.00 | 0.06 | 0.06 | 58 | 1065.5 |
| 20260502213215 | 42 | 284 | 3.0 | 6.0 | 0.00 | 0.06 | 0.06 | 58 | 1065.8 |
| 20260502212212 | 43 | 244 | 5.0 | 6.0 | 0.00 | 0.06 | 0.06 | 58 | 1065.9 |
| 20260502211210 | 41 | 332 | 1.0 | 1.0 | 0.00 | 0.06 | 0.06 | 63 | 1065.6 |
| 20260502210211 | 42 | 255 | 3.0 | 3.0 | 0.00 | 0.06 | 0.06 | 63 | 1065.7 |
| 20260502205210 | 41 | 304 | 4.0 | 5.0 | 0.00 | 0.06 | 0.06 | 62 | 1065.7 |
| 20260502204205 | 42 | 287 | 4.0 | 5.0 | 0.00 | 0.06 | 0.06 | 60 | 1065.8 |
| 20260502203200 | 42 | 271 | 3.0 | 3.0 | 0.00 | 0.06 | 0.06 | 61 | 1065.8 |
| 20260502202158 | 43 | 257 | 4.0 | 5.0 | 0.00 | 0.06 | 0.06 | 59 | 1065.9 |
| 20260502201158 | 42 | 323 | 3.0 | 3.0 | 0.00 | 0.06 | 0.06 | 61 | 1066.0 |
| 20260502200156 | 43 | 344 | 5.0 | 8.0 | 0.00 | 0.06 | 0.06 | 56 | 1065.8 |
| 20260502195156 | 42 | 334 | 3.0 | 5.0 | 0.00 | 0.06 | 0.06 | 58 | 1066.0 |
| 20260502194156 | 42 | 330 | 3.0 | 3.0 | 0.00 | 0.06 | 0.06 | 55 | 1066.0 |
| 20260502193155 | 43 | 341 | 8.0 | 10.0 | 0.00 | 0.06 | 0.06 | 55 | 1065.9 |
| 20260502192154 | 42 | 16 | 3.0 | 3.0 | 0.00 | 0.06 | 0.06 | 67 | 1066.2 |
| 20260502191154 | 41 | 288 | 2.0 | 2.0 | 0.00 | 0.06 | 0.06 | 63 | 1066.4 |
| 20260502190150 | 40 | 258 | 3.0 | 5.0 | 0.00 | 0.06 | 0.06 | 62 | 1066.5 |
| 20260502185147 | 40 | 261 | 0.0 | 1.0 | 0.00 | 0.06 | 0.06 | 64 | 1066.7 |
| 20260502184143 | 40 | 287 | 1.0 | 2.0 | 0.00 | 0.06 | 0.06 | 71 | 1066.5 |
| 20260502183141 | 40 | 330 | 3.0 | 3.0 | 0.00 | 0.06 | 0.06 | 70 | 1066.6 |
| 20260502182137 | 40 | 315 | 2.0 | 2.0 | 0.00 | 0.06 | 0.06 | 71 | 1066.7 |
| 20260502181134 | 40 | 326 | 2.0 | 3.0 | 0.00 | 0.06 | 0.06 | 70 | 1066.6 |
| 20260502180133 | 39 | 317 | 2.0 | 2.0 | 0.00 | 0.06 | 0.06 | 71 | 1066.8 |
| 20260502170125 | 39 | 22 | 5.0 | 6.0 | 0.00 | 0.06 | 0.06 | 82 | 1066.2 |
| 20260502164124 | 39 | 311 | 5.0 | 6.0 | 0.00 | 0.06 | 0.06 | 82 | 1066.2 |
| 20260502163123 | 38 | 289 | 2.0 | 3.0 | 0.00 | 0.06 | 0.06 | 83 | 1066.4 |
| 20260502162117 | 38 | 273 | 3.0 | 3.0 | 0.00 | 0.06 | 0.06 | 85 | 1066.5 |
| 20260502161117 | 37 | 312 | 2.0 | 2.0 | 0.00 | 0.06 | 0.06 | 85 | 1066.6 |
| 20260502160113 | 37 | 320 | 2.0 | 3.0 | 0.00 | 0.06 | 0.06 | 88 | 1066.6 |
| 20260502152103 | 36 | 276 | 4.0 | 5.0 | 0.00 | 0.06 | 0.06 | 92 | 1066.9 |
| 20260502151057 | 36 | 267 | 5.0 | 6.0 | 0.00 | 0.06 | 0.06 | 92 | 1066.7 |
| 20260502123028 | 37 | 264 | 1.0 | 1.0 | 0.00 | 0.06 | 0.06 | 99 | 1066.8 |
| 20260502122028 | 36 | 276 | 0.0 | 1.0 | 0.00 | 0.06 | 0.06 | 99 | 1066.8 |
| 20260502121028 | 37 | 265 | 1.0 | 1.0 | 0.00 | 0.06 | 0.06 | 99 | 1066.7 |
| 20260502115027 | 36 | 262 | 1.0 | 2.0 | 0.00 | 0.06 | 0.06 | 99 | 1066.7 |
| 20260502114026 | 36 | 270 | 2.0 | 2.0 | 0.00 | 0.06 | 0.06 | 99 | 1066.7 |
| 20260502113023 | 36 | 273 | 0.0 | 0.0 | 0.00 | 0.06 | 0.06 | 99 | 1066.7 |
| 20260502112023 | 36 | 269 | 2.0 | 2.0 | 0.00 | 0.06 | 0.06 | 99 | 1066.6 |
| 20260502111018 | 35 | 265 | 1.0 | 1.0 | 0.00 | 0.06 | 0.06 | 99 | 1066.6 |
| 20260502110013 | 35 | 271 | 0.0 | 0.0 | 0.00 | 0.06 | 0.06 | 99 | 1066.5 |
| 20260502105013 | 35 | 268 | 1.0 | 1.0 | 0.00 | 0.06 | 0.06 | 99 | 1066.5 |
| 20260502104008 | 35 | 268 | 1.0 | 1.0 | 0.00 | 0.06 | 0.06 | 99 | 1066.4 |
| 20260502103002 | 35 | 271 | 0.0 | 0.0 | 0.00 | 0.06 | 0.06 | 99 | 1066.2 |
| 20260502102002 | 35 | 272 | 0.0 | 0.0 | 0.00 | 0.06 | 0.06 | 99 | 1066.4 |
| 20260502100958 | 35 | 273 | 0.0 | 0.0 | 0.00 | 0.06 | 0.06 | 99 | 1066.0 |
| 20260502090934 | 35 | 278 | 0.0 | 0.0 | 0.00 | 0.06 | 0.06 | 99 | 1065.6 |
| 20260502070910 | 35 | 302 | 0.0 | 0.0 | 0.00 | 0.06 | 0.06 | 99 | 1065.4 |
| 20260502065906 | 35 | 284 | 0.0 | 0.0 | 0.00 | 0.06 | 0.06 | 99 | 1065.6 |
| 20260502064902 | 35 | 285 | 0.0 | 0.0 | 0.00 | 0.06 | 0.06 | 99 | 1065.3 |
| 20260502063856 | 35 | 290 | 1.0 | 1.0 | 0.00 | 0.06 | 0.06 | 99 | 1065.5 |
| 20260502062851 | 35 | 293 | 0.0 | 0.0 | 0.00 | 0.06 | 0.06 | 99 | 1065.6 |
| 20260502061847 | 35 | 299 | 0.0 | 0.0 | 0.07 | 0.06 | 0.06 | 99 | 1065.6 |
| 20260502060846 | 35 | 293 | 0.0 | 1.0 | 0.00 | 0.05 | 0.05 | 99 | 1065.6 |
| 20260502055845 | 35 | 285 | 0.0 | 0.0 | 0.00 | 0.05 | 0.05 | 99 | 1065.7 |
| 20260502054842 | 35 | 285 | 0.0 | 0.0 | 0.00 | 0.05 | 0.05 | 99 | 1065.5 |
| 20260502053837 | 35 | 275 | 0.0 | 0.0 | 0.00 | 0.05 | 0.05 | 99 | 1065.8 |
| 20260502052837 | 35 | 279 | 0.0 | 0.0 | 0.05 | 0.05 | 0.05 | 99 | 1065.9 |
| 20260502051832 | 35 | 279 | 0.0 | 0.0 | 0.00 | 0.04 | 0.04 | 99 | 1065.9 |
| 20260502050832 | 35 | 284 | 0.0 | 0.0 | 0.00 | 0.04 | 0.04 | 99 | 1065.6 |
| 20260502045832 | 35 | 285 | 0.0 | 0.0 | 0.07 | 0.04 | 0.04 | 99 | 1065.6 |
| 20260502044832 | 35 | 314 | 0.0 | 0.0 | 0.00 | 0.03 | 0.03 | 99 | 1065.9 |
| 20260502043831 | 36 | 283 | 0.0 | 0.0 | 0.05 | 0.03 | 0.03 | 99 | 1065.7 |
| 20260502042828 | 35 | 281 | 0.0 | 0.0 | 0.00 | 0.02 | 0.02 | 99 | 1065.9 |
| 20260502041823 | 35 | 273 | 0.0 | 0.0 | 0.07 | 0.02 | 0.02 | 99 | 1065.8 |
| 20260502040823 | 35 | 275 | 0.0 | 0.0 | 0.05 | 0.01 | 0.01 | 99 | 1065.8 |
| 20260502035822 | 35 | 272 | 0.0 | 0.0 | 0.07 | 0.18 | 0.18 | 99 | 1066.1 |
| 20260502034816 | 36 | 273 | 0.0 | 0.0 | 0.07 | 0.17 | 0.17 | 99 | 1066.0 |
| 20260502033812 | 36 | 272 | 1.0 | 1.0 | 0.12 | 0.15 | 0.15 | 99 | 1066.1 |
| 20260502032812 | 36 | 291 | 0.0 | 0.0 | 0.24 | 0.13 | 0.13 | 99 | 1065.9 |
| 20260502031812 | 37 | 37 | 0.0 | 1.0 | 0.12 | 0.08 | 0.08 | 99 | 1065.6 |
| 20260502030808 | 37 | 286 | 0.0 | 0.0 | 0.12 | 0.06 | 0.06 | 98 | 1065.8 |
| 20260502025803 | 37 | 67 | 2.0 | 2.0 | 0.12 | 0.04 | 0.04 | 98 | 1065.8 |
| 20260502024758 | 38 | 290 | 0.0 | 0.0 | 0.07 | 0.02 | 0.02 | 98 | 1065.8 |
| 20260502023754 | 39 | 290 | 0.0 | 0.0 | 0.05 | 0.01 | 0.01 | 97 | 1065.6 |
| 20260502022749 | 39 | 274 | 0.0 | 0.0 | 0.00 | 0.00 | 0.00 | 97 | 1065.8 |
| 20260502021748 | 39 | 69 | 1.0 | 1.0 | 0.00 | 0.00 | 0.00 | 97 | 1065.7 |
| 20260502020748 | 39 | 324 | 1.0 | 1.0 | 0.00 | 0.00 | 0.00 | 96 | 1065.8 |
| 20260502015743 | 39 | 47 | 0.0 | 0.0 | 0.00 | 0.00 | 0.00 | 96 | 1066.0 |
| 20260502014742 | 40 | 355 | 2.0 | 2.0 | 0.00 | 0.00 | 0.00 | 94 | 1065.9 |